Time,TemperatureF,DewpointF,PressureIn,WindDirection,WindDirectionDegrees,WindSpeedMPH,WindSpeedGustMPH,Humidity,HourlyPrecipIn,Conditions,Clouds,dailyrainin,SoftwareType,DateUTC
2013-02-03 00:00:00,53.3,36.6,27.53,South,180,0.0,0.0,53,0.00,,,0.00,WUHU216HW,2013-02-03 07:00:00,
2013-02-03 00:05:00,53.3,36.6,27.53,SW,225,0.0,0.0,53,0.00,,,0.00,WUHU216HW,2013-02-03 07:05:00,
2013-02-03 00:10:00,53.3,36.6,27.53,SW,225,0.0,0.0,53,0.00,,,0.00,WUHU216HW,2013-02-03 07:10:00,
2013-02-03 00:30:00,52.9,36.6,27.53,ESE,113,0.4,0.4,54,0.00,,,0.00,WUHU216HW,2013-02-03 07:30:00,
2013-02-03 00:35:00,52.9,36.6,27.52,ESE,113,0.4,0.4,54,0.00,,,0.00,WUHU216HW,2013-02-03 07:35:00,
2013-02-03 00:40:00,52.9,36.6,27.52,ESE,113,0.4,0.4,54,0.00,,,0.00,WUHU216HW,2013-02-03 07:40:00,
2013-02-03 01:00:00,52.9,36.6,27.52,NNW,338,0.0,0.0,54,0.00,,,0.00,WUHU216HW,2013-02-03 08:00:00,
2013-02-03 01:05:00,52.9,36.6,27.52,NNW,338,0.0,0.0,54,0.00,,,0.00,WUHU216HW,2013-02-03 08:05:00,
2013-02-03 01:10:00,52.9,36.6,27.52,NNW,338,0.0,0.0,54,0.00,,,0.00,WUHU216HW,2013-02-03 08:10:00,
2013-02-03 01:30:00,52.2,36.5,27.50,North,0,0.0,0.0,55,0.00,,,0.00,WUHU216HW,2013-02-03 08:30:00,
2013-02-03 01:35:00,52.4,36.6,27.50,North,0,0.0,0.0,55,0.00,,,0.00,WUHU216HW,2013-02-03 08:35:00,
2013-02-03 01:40:00,52.4,36.6,27.50,North,0,0.0,0.0,55,0.00,,,0.00,WUHU216HW,2013-02-03 08:40:00,
2013-02-03 02:00:00,51.3,36.6,27.49,ESE,113,0.0,0.0,57,0.00,,,0.00,WUHU216HW,2013-02-03 09:00:00,
2013-02-03 02:05:00,51.3,36.6,27.49,ESE,113,0.0,0.0,57,0.00,,,0.00,WUHU216HW,2013-02-03 09:05:00,
2013-02-03 02:10:00,51.3,36.6,27.49,ESE,113,0.0,0.0,57,0.00,,,0.00,WUHU216HW,2013-02-03 09:10:00,
2013-02-03 02:30:00,51.8,36.5,27.48,WNW,293,0.4,0.4,56,0.00,,,0.00,WUHU216HW,2013-02-03 09:30:00,
2013-02-03 02:35:00,51.8,36.5,27.48,WNW,293,0.4,0.4,56,0.00,,,0.00,WUHU216HW,2013-02-03 09:35:00,
2013-02-03 02:40:00,51.8,36.5,27.48,WNW,293,0.4,0.4,56,0.00,,,0.00,WUHU216HW,2013-02-03 09:40:00,
2013-02-03 03:00:00,52.0,36.7,27.48,NW,315,0.0,0.0,56,0.00,,,0.00,WUHU216HW,2013-02-03 10:00:00,
2013-02-03 03:05:00,52.0,36.7,27.48,NW,315,0.0,0.0,56,0.00,,,0.00,WUHU216HW,2013-02-03 10:05:00,
2013-02-03 03:10:00,52.0,36.7,27.48,NW,315,0.0,0.0,56,0.00,,,0.00,WUHU216HW,2013-02-03 10:10:00,
2013-02-03 03:30:00,51.8,37.0,27.47,NE,45,0.0,0.0,57,0.00,,,0.00,WUHU216HW,2013-02-03 10:30:00,
2013-02-03 03:35:00,51.8,37.0,27.47,NE,45,0.0,0.0,57,0.00,,,0.00,WUHU216HW,2013-02-03 10:35:00,
2013-02-03 03:40:00,51.8,37.0,27.47,NE,45,0.0,0.0,57,0.00,,,0.00,WUHU216HW,2013-02-03 10:40:00,
2013-02-03 04:00:00,51.7,37.3,27.47,SW,225,0.0,0.0,58,0.00,,,0.00,WUHU216HW,2013-02-03 11:00:00,
2013-02-03 04:05:00,51.7,37.3,27.47,SW,225,0.0,0.0,58,0.00,,,0.00,WUHU216HW,2013-02-03 11:05:00,
2013-02-03 04:10:00,51.7,37.3,27.47,SW,225,0.0,0.0,58,0.00,,,0.00,WUHU216HW,2013-02-03 11:10:00,
2013-02-03 04:30:00,51.1,37.3,27.46,NNE,23,0.0,0.0,59,0.00,,,0.00,WUHU216HW,2013-02-03 11:30:00,
2013-02-03 04:35:00,51.1,37.3,27.46,NNE,23,0.0,0.0,59,0.00,,,0.00,WUHU216HW,2013-02-03 11:35:00,
2013-02-03 04:40:00,51.1,37.3,27.46,NNE,23,0.0,0.0,59,0.00,,,0.00,WUHU216HW,2013-02-03 11:40:00,
2013-02-03 05:00:00,50.9,37.1,27.44,ESE,113,0.0,0.0,59,0.00,,,0.00,WUHU216HW,2013-02-03 12:00:00,
2013-02-03 05:05:00,50.9,37.1,27.44,ESE,113,0.0,0.0,59,0.00,,,0.00,WUHU216HW,2013-02-03 12:05:00,
2013-02-03 05:10:00,50.9,37.1,27.44,ESE,113,0.0,0.0,59,0.00,,,0.00,WUHU216HW,2013-02-03 12:10:00,
2013-02-03 05:30:00,50.8,37.4,27.44,ESE,113,0.0,0.0,60,0.00,,,0.00,WUHU216HW,2013-02-03 12:30:00,
2013-02-03 05:35:00,50.8,37.4,27.44,ESE,113,0.0,0.0,60,0.00,,,0.00,WUHU216HW,2013-02-03 12:35:00,
2013-02-03 05:40:00,50.8,37.4,27.44,ESE,113,0.0,0.0,60,0.00,,,0.00,WUHU216HW,2013-02-03 12:40:00,
2013-02-03 06:00:00,50.6,37.6,27.44,ENE,68,0.2,0.2,61,0.00,,,0.00,WUHU216HW,2013-02-03 13:00:00,
2013-02-03 06:05:00,50.6,37.6,27.44,ENE,68,0.2,0.2,61,0.00,,,0.00,WUHU216HW,2013-02-03 13:05:00,
2013-02-03 06:10:00,50.6,37.6,27.44,ENE,68,0.2,0.2,61,0.00,,,0.00,WUHU216HW,2013-02-03 13:10:00,
2013-02-03 06:30:00,50.8,37.8,27.44,SE,135,0.0,0.0,61,0.00,,,0.00,WUHU216HW,2013-02-03 13:30:00,
2013-02-03 06:35:00,50.8,37.8,27.44,SE,135,0.0,0.0,61,0.00,,,0.00,WUHU216HW,2013-02-03 13:35:00,
2013-02-03 06:40:00,50.8,37.8,27.44,SE,135,0.0,0.0,61,0.00,,,0.00,WUHU216HW,2013-02-03 13:40:00,
2013-02-03 07:00:00,50.8,37.8,27.44,WSW,248,0.0,0.0,61,0.00,,,0.00,WUHU216HW,2013-02-03 14:00:00,
2013-02-03 07:05:00,50.8,37.8,27.44,WSW,248,0.0,0.0,61,0.00,,,0.00,WUHU216HW,2013-02-03 14:05:00,
2013-02-03 07:10:00,50.8,37.8,27.44,WSW,248,0.0,0.0,61,0.00,,,0.00,WUHU216HW,2013-02-03 14:10:00,
2013-02-03 07:30:00,50.9,37.1,27.45,NW,315,0.4,0.4,59,0.00,,,0.00,WUHU216HW,2013-02-03 14:30:00,
2013-02-03 07:35:00,50.9,37.1,27.45,NNW,338,0.0,0.4,59,0.00,,,0.00,WUHU216HW,2013-02-03 14:35:00,
2013-02-03 07:40:00,50.9,37.1,27.45,NNW,338,0.0,0.0,59,0.00,,,0.00,WUHU216HW,2013-02-03 14:40:00,
2013-02-03 08:00:00,52.0,36.7,27.44,SE,135,0.0,0.0,56,0.00,,,0.00,WUHU216HW,2013-02-03 15:00:00,
2013-02-03 08:05:00,52.0,36.7,27.44,SE,135,0.0,0.0,56,0.00,,,0.00,WUHU216HW,2013-02-03 15:05:00,
2013-02-03 08:10:00,52.0,36.7,27.44,SE,135,0.0,0.0,56,0.00,,,0.00,WUHU216HW,2013-02-03 15:10:00,
2013-02-03 08:30:00,52.7,36.5,27.44,SW,225,0.7,0.7,54,0.00,,,0.00,WUHU216HW,2013-02-03 15:30:00,
2013-02-03 08:35:00,52.7,36.5,27.44,WSW,248,0.4,0.7,54,0.00,,,0.00,WUHU216HW,2013-02-03 15:35:00,
2013-02-03 08:40:00,52.7,36.5,27.44,WSW,248,0.4,0.4,54,0.00,,,0.00,WUHU216HW,2013-02-03 15:40:00,
2013-02-03 09:00:00,53.6,36.9,27.45,SE,135,0.0,0.0,53,0.00,,,0.00,WUHU216HW,2013-02-03 16:00:00,
2013-02-03 09:05:00,53.6,36.9,27.45,SE,135,0.0,0.0,53,0.00,,,0.00,WUHU216HW,2013-02-03 16:05:00,
2013-02-03 09:10:00,53.6,36.9,27.45,SE,135,0.0,0.0,53,0.00,,,0.00,WUHU216HW,2013-02-03 16:10:00,
2013-02-03 09:30:00,55.1,37.3,27.45,SSW,203,0.0,0.0,51,0.00,,,0.00,WUHU216HW,2013-02-03 16:30:00,
2013-02-03 09:35:00,55.1,37.3,27.45,WSW,248,0.0,0.0,51,0.00,,,0.00,WUHU216HW,2013-02-03 16:35:00,
2013-02-03 09:40:00,55.1,37.3,27.45,WSW,248,0.0,0.0,51,0.00,,,0.00,WUHU216HW,2013-02-03 16:40:00,
2013-02-03 10:00:00,57.1,37.5,27.46,SW,225,1.1,1.1,48,0.00,,,0.00,WUHU216HW,2013-02-03 17:00:00,
2013-02-03 10:05:00,57.2,37.7,27.46,SSW,203,1.1,1.1,48,0.00,,,0.00,WUHU216HW,2013-02-03 17:05:00,
2013-02-03 10:10:00,57.2,37.7,27.46,SSW,203,1.1,1.1,48,0.00,,,0.00,WUHU216HW,2013-02-03 17:10:00,
2013-02-03 10:30:00,59.0,37.1,27.46,West,270,0.9,0.9,44,0.00,,,0.00,WUHU216HW,2013-02-03 17:30:00,
2013-02-03 10:35:00,59.0,37.1,27.46,WNW,293,1.1,1.1,44,0.00,,,0.00,WUHU216HW,2013-02-03 17:35:00,
2013-02-03 10:40:00,59.0,37.1,27.46,WNW,293,1.1,1.1,44,0.00,,,0.00,WUHU216HW,2013-02-03 17:40:00,
2013-02-03 11:00:00,61.6,34.1,27.46,SW,225,0.9,0.9,36,0.00,,,0.00,WUHU216HW,2013-02-03 18:00:00,
2013-02-03 11:05:00,61.6,34.8,27.46,SW,225,0.2,0.9,37,0.00,,,0.00,WUHU216HW,2013-02-03 18:05:00,
2013-02-03 11:10:00,61.6,34.8,27.46,SW,225,0.2,0.2,37,0.00,,,0.00,WUHU216HW,2013-02-03 18:10:00,
2013-02-03 11:30:00,63.4,32.1,27.46,West,270,1.1,1.1,31,0.00,,,0.00,WUHU216HW,2013-02-03 18:30:00,
2013-02-03 11:35:00,63.4,32.1,27.46,WSW,248,1.1,1.1,31,0.00,,,0.00,WUHU216HW,2013-02-03 18:35:00,
2013-02-03 11:40:00,63.4,32.1,27.46,WSW,248,1.1,1.1,31,0.00,,,0.00,WUHU216HW,2013-02-03 18:40:00,
2013-02-03 12:00:00,64.8,32.8,27.45,WNW,293,1.6,1.6,30,0.00,,,0.00,WUHU216HW,2013-02-03 19:00:00,
2013-02-03 12:05:00,64.8,32.8,27.45,WNW,293,1.6,1.6,30,0.00,,,0.00,WUHU216HW,2013-02-03 19:05:00,
2013-02-03 12:10:00,64.8,32.8,27.45,WNW,293,1.6,1.6,30,0.00,,,0.00,WUHU216HW,2013-02-03 19:10:00,
2013-02-03 12:30:00,66.1,34.6,27.43,SW,225,0.4,0.4,31,0.00,,,0.00,WUHU216HW,2013-02-03 19:30:00,
2013-02-03 12:35:00,66.1,34.6,27.43,SW,225,0.2,0.4,31,0.00,,,0.00,WUHU216HW,2013-02-03 19:35:00,
2013-02-03 12:40:00,66.1,34.6,27.43,SW,225,0.2,0.4,31,0.00,,,0.00,WUHU216HW,2013-02-03 19:40:00,
2013-02-03 13:00:00,66.6,34.3,27.41,SSW,203,2.2,2.2,30,0.00,,,0.00,WUHU216HW,2013-02-03 20:00:00,
2013-02-03 13:05:00,66.6,34.3,27.41,SSW,203,1.8,2.2,30,0.00,,,0.00,WUHU216HW,2013-02-03 20:05:00,
2013-02-03 13:10:00,66.6,34.3,27.41,SSW,203,1.8,2.2,30,0.00,,,0.00,WUHU216HW,2013-02-03 20:10:00,
2013-02-03 13:30:00,66.2,33.0,27.40,WSW,248,1.3,1.3,29,0.00,,,0.00,WUHU216HW,2013-02-03 20:30:00,
2013-02-03 13:35:00,66.4,33.1,27.40,WSW,248,1.6,1.6,29,0.00,,,0.00,WUHU216HW,2013-02-03 20:35:00,
2013-02-03 13:40:00,66.4,33.1,27.40,WSW,248,1.6,1.6,29,0.00,,,0.00,WUHU216HW,2013-02-03 20:40:00,
2013-02-03 14:00:00,66.2,34.0,27.39,SW,225,1.1,1.1,30,0.00,,,0.00,WUHU216HW,2013-02-03 21:00:00,
2013-02-03 14:05:00,66.2,34.0,27.39,SW,225,0.2,1.1,30,0.00,,,0.00,WUHU216HW,2013-02-03 21:05:00,
2013-02-03 14:10:00,66.2,34.0,27.39,SW,225,0.2,0.4,30,0.00,,,0.00,WUHU216HW,2013-02-03 21:10:00,
2013-02-03 14:30:00,66.6,34.3,27.38,SE,135,0.4,0.4,30,0.00,,,0.00,WUHU216HW,2013-02-03 21:30:00,
2013-02-03 14:35:00,66.6,34.3,27.38,SSE,158,0.4,0.4,30,0.00,,,0.00,WUHU216HW,2013-02-03 21:35:00,
2013-02-03 14:40:00,66.6,34.3,27.38,SSE,158,0.4,0.4,30,0.00,,,0.00,WUHU216HW,2013-02-03 21:40:00,
2013-02-03 15:00:00,67.5,35.0,27.37,East,90,1.3,1.3,30,0.00,,,0.00,WUHU216HW,2013-02-03 22:00:00,
2013-02-03 15:05:00,67.5,35.0,27.37,East,90,1.3,1.3,30,0.00,,,0.00,WUHU216HW,2013-02-03 22:05:00,
2013-02-03 15:10:00,67.5,35.0,27.37,East,90,1.3,1.3,30,0.00,,,0.00,WUHU216HW,2013-02-03 22:10:00,
2013-02-03 15:30:00,67.7,33.2,27.37,NNE,23,1.6,1.6,28,0.00,,,0.00,WUHU216HW,2013-02-03 22:30:00,
2013-02-03 15:35:00,67.7,33.2,27.36,NE,45,1.6,1.6,28,0.00,,,0.00,WUHU216HW,2013-02-03 22:35:00,
2013-02-03 15:40:00,67.7,33.2,27.36,NE,45,1.6,1.6,28,0.00,,,0.00,WUHU216HW,2013-02-03 22:40:00,
2013-02-03 16:00:00,68.6,33.9,27.36,NNE,23,1.6,1.6,28,0.00,,,0.00,WUHU216HW,2013-02-03 23:00:00,
2013-02-03 16:05:00,68.6,33.9,27.36,North,0,0.7,1.6,28,0.00,,,0.00,WUHU216HW,2013-02-03 23:05:00,
2013-02-03 16:10:00,68.6,33.9,27.36,North,0,0.7,0.7,28,0.00,,,0.00,WUHU216HW,2013-02-03 23:10:00,
2013-02-03 16:30:00,69.5,35.7,27.36,NNW,338,0.0,0.0,29,0.00,,,0.00,WUHU216HW,2013-02-03 23:30:00,
2013-02-03 16:35:00,69.5,35.7,27.37,SSW,203,0.0,0.0,29,0.00,,,0.00,WUHU216HW,2013-02-03 23:35:00,
2013-02-03 16:40:00,69.5,35.7,27.37,SSW,203,0.0,0.0,29,0.00,,,0.00,WUHU216HW,2013-02-03 23:40:00,
2013-02-03 17:00:00,69.3,36.6,27.36,SW,225,1.6,1.6,30,0.00,,,0.00,WUHU216HW,2013-02-04 00:00:00,
2013-02-03 17:05:00,69.5,36.7,27.36,WSW,248,1.1,1.6,30,0.00,,,0.00,WUHU216HW,2013-02-04 00:05:00,
2013-02-03 17:10:00,69.5,36.7,27.36,WSW,248,1.1,1.1,30,0.00,,,0.00,WUHU216HW,2013-02-04 00:10:00,
2013-02-03 17:30:00,68.6,35.9,27.36,WSW,248,0.0,0.0,30,0.00,,,0.00,WUHU216HW,2013-02-04 00:30:00,
2013-02-03 17:35:00,68.6,35.9,27.36,WSW,248,0.0,0.0,30,0.00,,,0.00,WUHU216HW,2013-02-04 00:35:00,
2013-02-03 17:40:00,68.6,35.9,27.36,WSW,248,0.0,0.0,30,0.00,,,0.00,WUHU216HW,2013-02-04 00:40:00,
2013-02-03 18:00:00,67.5,36.5,27.36,WSW,248,0.0,0.0,32,0.00,,,0.00,WUHU216HW,2013-02-04 01:00:00,
2013-02-03 18:05:00,67.5,36.5,27.36,WSW,248,0.0,0.0,32,0.00,,,0.00,WUHU216HW,2013-02-04 01:05:00,
2013-02-03 18:10:00,67.5,36.5,27.36,WSW,248,0.0,0.0,32,0.00,,,0.00,WUHU216HW,2013-02-04 01:10:00,
2013-02-03 18:30:00,65.9,36.5,27.37,NW,315,0.0,0.0,34,0.00,,,0.00,WUHU216HW,2013-02-04 01:30:00,
2013-02-03 18:35:00,65.9,36.5,27.37,NW,315,0.0,0.0,34,0.00,,,0.00,WUHU216HW,2013-02-04 01:35:00,
2013-02-03 18:40:00,65.9,36.5,27.37,NW,315,0.0,0.0,34,0.00,,,0.00,WUHU216HW,2013-02-04 01:40:00,
2013-02-03 19:00:00,64.4,36.0,27.37,WSW,248,0.0,0.0,35,0.00,,,0.00,WUHU216HW,2013-02-04 02:00:00,
2013-02-03 19:05:00,64.4,36.0,27.37,WSW,248,0.0,0.0,35,0.00,,,0.00,WUHU216HW,2013-02-04 02:05:00,
2013-02-03 19:10:00,64.4,36.0,27.37,WSW,248,0.0,0.0,35,0.00,,,0.00,WUHU216HW,2013-02-04 02:10:00,
2013-02-03 19:30:00,63.4,36.5,27.38,SW,225,0.0,0.0,37,0.00,,,0.00,WUHU216HW,2013-02-04 02:30:00,
2013-02-03 19:35:00,63.4,36.5,27.38,SW,225,0.0,0.0,37,0.00,,,0.00,WUHU216HW,2013-02-04 02:35:00,
2013-02-03 19:40:00,63.4,36.5,27.38,SW,225,0.0,0.0,37,0.00,,,0.00,WUHU216HW,2013-02-04 02:40:00,
2013-02-03 20:00:00,62.3,36.2,27.38,ESE,113,0.0,0.0,38,0.00,,,0.00,WUHU216HW,2013-02-04 03:00:00,
2013-02-03 20:05:00,62.3,36.2,27.38,ESE,113,0.0,0.0,38,0.00,,,0.00,WUHU216HW,2013-02-04 03:05:00,
2013-02-03 20:10:00,62.3,36.2,27.38,ESE,113,0.0,0.0,38,0.00,,,0.00,WUHU216HW,2013-02-04 03:10:00,
2013-02-03 20:30:00,61.2,36.7,27.40,ESE,113,0.0,0.0,40,0.00,,,0.00,WUHU216HW,2013-02-04 03:30:00,
2013-02-03 20:35:00,61.2,36.7,27.40,ESE,113,0.0,0.0,40,0.00,,,0.00,WUHU216HW,2013-02-04 03:35:00,
2013-02-03 20:40:00,61.2,36.7,27.40,ESE,113,0.0,0.0,40,0.00,,,0.00,WUHU216HW,2013-02-04 03:40:00,
2013-02-03 21:00:00,60.5,37.2,27.41,SW,225,0.0,0.0,42,0.00,,,0.00,WUHU216HW,2013-02-04 04:00:00,
2013-02-03 21:05:00,60.5,37.2,27.41,SW,225,0.0,0.0,42,0.00,,,0.00,WUHU216HW,2013-02-04 04:05:00,
2013-02-03 21:10:00,60.5,37.2,27.41,SW,225,0.0,0.0,42,0.00,,,0.00,WUHU216HW,2013-02-04 04:10:00,
2013-02-03 21:30:00,59.9,37.9,27.41,ESE,113,0.0,0.0,44,0.00,,,0.00,WUHU216HW,2013-02-04 04:30:00,
2013-02-03 21:35:00,59.9,37.9,27.41,ESE,113,0.0,0.0,44,0.00,,,0.00,WUHU216HW,2013-02-04 04:35:00,
2013-02-03 21:40:00,59.9,37.9,27.41,ESE,113,0.0,0.0,44,0.00,,,0.00,WUHU216HW,2013-02-04 04:40:00,
2013-02-03 22:00:00,59.2,37.8,27.41,SE,135,0.2,0.2,45,0.00,,,0.00,WUHU216HW,2013-02-04 05:00:00,
2013-02-03 22:02:00,59.2,37.8,27.41,SE,135,0.4,0.4,45,0.00,,,0.00,WUHU216HW,2013-02-04 05:02:00,
2013-02-03 22:03:00,59.2,37.8,27.41,SE,135,0.4,0.4,45,0.00,,,0.00,WUHU216HW,2013-02-04 05:03:00,
2013-02-03 22:08:00,59.2,37.8,27.41,SE,135,0.4,0.4,45,0.00,,,0.00,WUHU216HW,2013-02-04 05:08:00,
2013-02-03 22:30:00,58.5,37.7,27.41,East,90,0.0,0.0,46,0.00,,,0.00,WUHU216HW,2013-02-04 05:30:00,
2013-02-03 22:35:00,58.5,37.7,27.41,ENE,68,0.0,0.0,46,0.00,,,0.00,WUHU216HW,2013-02-04 05:35:00,
2013-02-03 22:40:00,58.5,37.7,27.41,ENE,68,0.0,0.0,46,0.00,,,0.00,WUHU216HW,2013-02-04 05:40:00,
2013-02-03 23:00:00,58.0,37.8,27.41,ENE,68,0.0,0.0,47,0.00,,,0.00,WUHU216HW,2013-02-04 06:00:00,
2013-02-03 23:05:00,58.0,37.8,27.41,ENE,68,0.0,0.0,47,0.00,,,0.00,WUHU216HW,2013-02-04 06:05:00,
2013-02-03 23:10:00,58.0,37.8,27.41,ENE,68,0.0,0.0,47,0.00,,,0.00,WUHU216HW,2013-02-04 06:10:00,
2013-02-03 23:30:00,56.2,37.3,27.41,East,90,0.0,0.0,49,0.00,,,0.00,WUHU216HW,2013-02-04 06:30:00,
2013-02-03 23:35:00,56.3,37.5,27.41,East,90,0.0,0.0,49,0.00,,,0.00,WUHU216HW,2013-02-04 06:35:00,
2013-02-03 23:40:00,56.3,37.5,27.41,East,90,0.0,0.0,49,0.00,,,0.00,WUHU216HW,2013-02-04 06:40:00,